sat.trackr.live / text

‹ back to catalog

STARLINK-4659

NORAD 54841 · 2022-177X

PAYLOAD ACTIVE UNKNOWN

§ Identity

Operator
Country
US
Launch date
2022-12-28
Launch site
AFETR
Launch vehicle
Mass (kg)
RCS (m²)

Purposes: comms

External: N2YO · Heavens-Above · Gunter

§ Orbital elements

Epoch: 2026-09-19T21:48:41.107104Z

Period
94.27 min
Inclination
43.0034°
Eccentricity
0.0001289
Mean motion
15.27574568 rev/d
Perigee alt
482.2 km
Apogee alt
483.9 km
Semi-major
6,861.2 km
B*
-2.0927e-5
RAAN
116.0660°
Arg perigee
265.0356°
Mean anomaly
95.0349°
Rev number
20,666

§ Raw data

STARLINK-46591 54841U 22177X   26262.90880911 -.00000838  00000+0 -20927-4 0  99992 54841  43.0034 116.0660 0001289 265.0356  95.0349 15.27574568206665

JSON: /api/v1/satellites/54841 · /tle

For live sub-satellite position, see the globe view (requires WebGL).

§ Visibility from observer

Set your observer location to see the next 7 days of passes ≥ 10°. The values pass through the URL so the page stays shareable.

No JS? Fill the form by hand. The geolocation button needs JavaScript.